owner,sensor,date,latitude,longitude,air_temperature,qcFlag 
DISL,ioos:station:DISL:MBLA:1,2014-10-01T00:00:00Z,30.4367,-88.0117,25.84,1111122 
DISL,ioos:station:DISL:MBLA:1,2014-10-01T00:30:00Z,30.4367,-88.0117,25.71,1111122 
DISL,ioos:station:DISL:MBLA:1,2014-10-01T01:00:00Z,30.4367,-88.0117,25.52,1111122 
DISL,ioos:station:DISL:MBLA:1,2014-10-01T01:30:00Z,30.4367,-88.0117,25.39,1111122 
DISL,ioos:station:DISL:MBLA:1,2014-10-01T02:00:00Z,30.4367,-88.0117,24.92,1111122 
DISL,ioos:station:DISL:MBLA:1,2014-10-01T02:30:00Z,30.4367,-88.0117,24.65,1111122 
DISL,ioos:station:DISL:MBLA:1,2014-10-01T03:00:00Z,30.4367,-88.0117,24.17,1111122 
DISL,ioos:station:DISL:MBLA:1,2014-10-01T03:30:00Z,30.4367,-88.0117,24.0,1111122 
DISL,ioos:station:DISL:MBLA:1,2014-10-01T04:00:00Z,30.4367,-88.0117,24.14,1111122 
DISL,ioos:station:DISL:MBLA:1,2014-10-01T04:30:00Z,30.4367,-88.0117,23.97,1111122 
DISL,ioos:station:DISL:MBLA:1,2014-10-01T05:00:00Z,30.4367,-88.0117,24.1,1111122 
DISL,ioos:station:DISL:MBLA:1,2014-10-01T05:30:00Z,30.4367,-88.0117,24.0,1111122 
DISL,ioos:station:DISL:MBLA:1,2014-10-01T06:00:00Z,30.4367,-88.0117,24.0,1111122 
DISL,ioos:station:DISL:MBLA:1,2014-10-01T06:30:00Z,30.4367,-88.0117,23.77,1111122 
DISL,ioos:station:DISL:MBLA:1,2014-10-01T07:00:00Z,30.4367,-88.0117,23.39,1111122 
DISL,ioos:station:DISL:MBLA:1,2014-10-01T07:30:00Z,30.4367,-88.0117,23.33,1111122 
DISL,ioos:station:DISL:MBLA:1,2014-10-01T08:00:00Z,30.4367,-88.0117,23.07,1111122 
DISL,ioos:station:DISL:MBLA:1,2014-10-01T08:30:00Z,30.4367,-88.0117,23.41,1111122 
DISL,ioos:station:DISL:MBLA:1,2014-10-01T09:00:00Z,30.4367,-88.0117,23.51,1111122 
DISL,ioos:station:DISL:MBLA:1,2014-10-01T09:30:00Z,30.4367,-88.0117,23.24,1111122 
DISL,ioos:station:DISL:MBLA:1,2014-10-01T10:00:00Z,30.4367,-88.0117,23.07,1111122 
DISL,ioos:station:DISL:MBLA:1,2014-10-01T10:30:00Z,30.4367,-88.0117,23.01,1111122 
DISL,ioos:station:DISL:MBLA:1,2014-10-01T11:00:00Z,30.4367,-88.0117,23.04,1111122 
DISL,ioos:station:DISL:MBLA:1,2014-10-01T11:30:00Z,30.4367,-88.0117,23.11,1111122 
DISL,ioos:station:DISL:MBLA:1,2014-10-01T12:00:00Z,30.4367,-88.0117,22.94,1111122 
DISL,ioos:station:DISL:MBLA:1,2014-10-01T12:30:00Z,30.4367,-88.0117,23.01,1111122 
DISL,ioos:station:DISL:MBLA:1,2014-10-01T13:00:00Z,30.4367,-88.0117,23.03,1111122 
DISL,ioos:station:DISL:MBLA:1,2014-10-01T13:30:00Z,30.4367,-88.0117,24.11,1111122 
DISL,ioos:station:DISL:MBLA:1,2014-10-01T14:00:00Z,30.4367,-88.0117,23.7,1111122 
DISL,ioos:station:DISL:MBLA:1,2014-10-01T14:30:00Z,30.4367,-88.0117,23.93,1111122 
DISL,ioos:station:DISL:MBLA:1,2014-10-01T15:00:00Z,30.4367,-88.0117,24.51,1111122 
DISL,ioos:station:DISL:MBLA:1,2014-10-01T15:30:00Z,30.4367,-88.0117,25.05,1111122 
DISL,ioos:station:DISL:MBLA:1,2014-10-01T16:00:00Z,30.4367,-88.0117,25.32,1111122 
DISL,ioos:station:DISL:MBLA:1,2014-10-01T16:30:00Z,30.4367,-88.0117,25.66,1111122 
DISL,ioos:station:DISL:MBLA:1,2014-10-01T17:00:00Z,30.4367,-88.0117,25.78,1111122 
DISL,ioos:station:DISL:MBLA:1,2014-10-01T17:30:00Z,30.4367,-88.0117,26.01,1111122 
DISL,ioos:station:DISL:MBLA:1,2014-10-01T18:00:00Z,30.4367,-88.0117,27.4,1111122 
DISL,ioos:station:DISL:MBLA:1,2014-10-01T18:30:00Z,30.4367,-88.0117,26.72,1111122 
DISL,ioos:station:DISL:MBLA:1,2014-10-01T19:00:00Z,30.4367,-88.0117,26.01,1111122 
DISL,ioos:station:DISL:MBLA:1,2014-10-01T19:30:00Z,30.4367,-88.0117,26.11,1111122 
DISL,ioos:station:DISL:MBLA:1,2014-10-01T20:00:00Z,30.4367,-88.0117,25.98,1111122 
DISL,ioos:station:DISL:MBLA:1,2014-10-01T20:30:00Z,30.4367,-88.0117,26.11,1111122 
DISL,ioos:station:DISL:MBLA:1,2014-10-01T21:00:00Z,30.4367,-88.0117,25.98,1111122 
DISL,ioos:station:DISL:MBLA:1,2014-10-01T21:30:00Z,30.4367,-88.0117,25.81,1111122 
DISL,ioos:station:DISL:MBLA:1,2014-10-01T22:00:00Z,30.4367,-88.0117,25.86,1111122 
DISL,ioos:station:DISL:MBLA:1,2014-10-01T22:30:00Z,30.4367,-88.0117,25.93,1111122 
DISL,ioos:station:DISL:MBLA:1,2014-10-01T23:00:00Z,30.4367,-88.0117,25.83,1111122 
DISL,ioos:station:DISL:MBLA:1,2014-10-01T23:30:00Z,30.4367,-88.0117,25.83,1111122 
DISL,ioos:station:DISL:MBLA:1,2014-10-02T00:00:00Z,30.4367,-88.0117,25.83,1111122 
DISL,ioos:station:DISL:MBLA:1,2014-10-02T00:30:00Z,30.4367,-88.0117,25.76,1111122 
DISL,ioos:station:DISL:MBLA:1,2014-10-02T01:00:00Z,30.4367,-88.0117,25.7,1111122 
DISL,ioos:station:DISL:MBLA:1,2014-10-02T01:30:00Z,30.4367,-88.0117,25.73,1111122 
DISL,ioos:station:DISL:MBLA:1,2014-10-02T02:00:00Z,30.4367,-88.0117,25.8,1111122 
DISL,ioos:station:DISL:MBLA:1,2014-10-02T02:30:00Z,30.4367,-88.0117,25.7,1111122 
DISL,ioos:station:DISL:MBLA:1,2014-10-02T03:00:00Z,30.4367,-88.0117,25.83,1111122 
DISL,ioos:station:DISL:MBLA:1,2014-10-02T03:30:00Z,30.4367,-88.0117,25.76,1111122 
DISL,ioos:station:DISL:MBLA:1,2014-10-02T04:00:00Z,30.4367,-88.0117,25.63,1111122 
DISL,ioos:station:DISL:MBLA:1,2014-10-02T04:30:00Z,30.4367,-88.0117,25.63,1111122 
DISL,ioos:station:DISL:MBLA:1,2014-10-02T05:00:00Z,30.4367,-88.0117,25.66,1111122 
DISL,ioos:station:DISL:MBLA:1,2014-10-02T05:30:00Z,30.4367,-88.0117,25.32,1111122 
DISL,ioos:station:DISL:MBLA:1,2014-10-02T06:00:00Z,30.4367,-88.0117,25.19,1111122 
DISL,ioos:station:DISL:MBLA:1,2014-10-02T06:30:00Z,30.4367,-88.0117,24.71,1111122 
DISL,ioos:station:DISL:MBLA:1,2014-10-02T07:00:00Z,30.4367,-88.0117,24.85,1111122 
DISL,ioos:station:DISL:MBLA:1,2014-10-02T07:30:00Z,30.4367,-88.0117,25.02,1111122 
DISL,ioos:station:DISL:MBLA:1,2014-10-02T08:00:00Z,30.4367,-88.0117,24.58,1111122 
DISL,ioos:station:DISL:MBLA:1,2014-10-02T08:30:00Z,30.4367,-88.0117,24.75,1111122 
DISL,ioos:station:DISL:MBLA:1,2014-10-02T09:00:00Z,30.4367,-88.0117,24.54,1111122 
DISL,ioos:station:DISL:MBLA:1,2014-10-02T09:30:00Z,30.4367,-88.0117,24.61,1111122 
DISL,ioos:station:DISL:MBLA:1,2014-10-02T10:00:00Z,30.4367,-88.0117,24.48,1111122 
DISL,ioos:station:DISL:MBLA:1,2014-10-02T10:30:00Z,30.4367,-88.0117,24.71,1111122 
DISL,ioos:station:DISL:MBLA:1,2014-10-02T11:00:00Z,30.4367,-88.0117,24.81,1111122 
DISL,ioos:station:DISL:MBLA:1,2014-10-02T11:30:00Z,30.4367,-88.0117,24.54,1111122 
DISL,ioos:station:DISL:MBLA:1,2014-10-02T12:00:00Z,30.4367,-88.0117,24.48,1111122 
DISL,ioos:station:DISL:MBLA:1,2014-10-02T12:30:00Z,30.4367,-88.0117,24.51,1111122 
DISL,ioos:station:DISL:MBLA:1,2014-10-02T13:00:00Z,30.4367,-88.0117,24.37,1111122 
DISL,ioos:station:DISL:MBLA:1,2014-10-02T13:30:00Z,30.4367,-88.0117,24.78,1111122 
DISL,ioos:station:DISL:MBLA:1,2014-10-02T14:00:00Z,30.4367,-88.0117,25.19,1111122 
DISL,ioos:station:DISL:MBLA:1,2014-10-02T14:30:00Z,30.4367,-88.0117,25.56,1111122 
DISL,ioos:station:DISL:MBLA:1,2014-10-02T15:00:00Z,30.4367,-88.0117,26.0,1111122 
DISL,ioos:station:DISL:MBLA:1,2014-10-02T15:30:00Z,30.4367,-88.0117,26.02,1111122 
DISL,ioos:station:DISL:MBLA:1,2014-10-02T16:00:00Z,30.4367,-88.0117,26.19,1111122 
DISL,ioos:station:DISL:MBLA:1,2014-10-02T16:30:00Z,30.4367,-88.0117,26.66,1111122 
DISL,ioos:station:DISL:MBLA:1,2014-10-02T17:00:00Z,30.4367,-88.0117,26.72,1111122 
DISL,ioos:station:DISL:MBLA:1,2014-10-02T17:30:00Z,30.4367,-88.0117,27.03,1111122 
DISL,ioos:station:DISL:MBLA:1,2014-10-02T18:00:00Z,30.4367,-88.0117,26.86,1111122 
DISL,ioos:station:DISL:MBLA:1,2014-10-02T18:30:00Z,30.4367,-88.0117,26.93,1111122 
DISL,ioos:station:DISL:MBLA:1,2014-10-02T19:00:00Z,30.4367,-88.0117,27.16,1111122 
DISL,ioos:station:DISL:MBLA:1,2014-10-02T19:30:00Z,30.4367,-88.0117,27.23,1111122 
DISL,ioos:station:DISL:MBLA:1,2014-10-02T20:00:00Z,30.4367,-88.0117,26.96,1111122 
DISL,ioos:station:DISL:MBLA:1,2014-10-02T20:30:00Z,30.4367,-88.0117,27.13,1111122 
DISL,ioos:station:DISL:MBLA:1,2014-10-02T21:00:00Z,30.4367,-88.0117,27.37,1111122 
DISL,ioos:station:DISL:MBLA:1,2014-10-02T21:30:00Z,30.4367,-88.0117,27.27,1111122 
DISL,ioos:station:DISL:MBLA:1,2014-10-02T22:00:00Z,30.4367,-88.0117,27.47,1111122 
DISL,ioos:station:DISL:MBLA:1,2014-10-02T22:30:00Z,30.4367,-88.0117,27.4,1111122 
DISL,ioos:station:DISL:MBLA:1,2014-10-02T23:00:00Z,30.4367,-88.0117,26.93,1111122 
DISL,ioos:station:DISL:MBLA:1,2014-10-02T23:30:00Z,30.4367,-88.0117,26.79,1111122 
DISL,ioos:station:DISL:MBLA:1,2014-10-03T00:00:00Z,30.4367,-88.0117,26.72,1111122 
DISL,ioos:station:DISL:MBLA:1,2014-10-03T00:30:00Z,30.4367,-88.0117,26.69,1111122 
DISL,ioos:station:DISL:MBLA:1,2014-10-03T01:00:00Z,30.4367,-88.0117,26.76,1111122 
DISL,ioos:station:DISL:MBLA:1,2014-10-03T01:30:00Z,30.4367,-88.0117,26.77,1111122 
DISL,ioos:station:DISL:MBLA:1,2014-10-03T02:00:00Z,30.4367,-88.0117,26.7,1111122 
DISL,ioos:station:DISL:MBLA:1,2014-10-03T02:30:00Z,30.4367,-88.0117,26.67,1111122 
DISL,ioos:station:DISL:MBLA:1,2014-10-03T03:00:00Z,30.4367,-88.0117,26.6,1111122 
DISL,ioos:station:DISL:MBLA:1,2014-10-03T03:30:00Z,30.4367,-88.0117,26.54,1111122 
DISL,ioos:station:DISL:MBLA:1,2014-10-03T04:00:00Z,30.4367,-88.0117,26.61,1111122 
DISL,ioos:station:DISL:MBLA:1,2014-10-03T04:30:00Z,30.4367,-88.0117,26.71,1111122 
DISL,ioos:station:DISL:MBLA:1,2014-10-03T05:00:00Z,30.4367,-88.0117,26.67,1111122 
DISL,ioos:station:DISL:MBLA:1,2014-10-03T05:30:00Z,30.4367,-88.0117,26.68,1111122 
DISL,ioos:station:DISL:MBLA:1,2014-10-03T06:00:00Z,30.4367,-88.0117,26.64,1111122 
DISL,ioos:station:DISL:MBLA:1,2014-10-03T06:30:00Z,30.4367,-88.0117,26.47,1111122 
DISL,ioos:station:DISL:MBLA:1,2014-10-03T07:00:00Z,30.4367,-88.0117,26.54,1111122 
DISL,ioos:station:DISL:MBLA:1,2014-10-03T07:30:00Z,30.4367,-88.0117,26.47,1111122 
DISL,ioos:station:DISL:MBLA:1,2014-10-03T08:00:00Z,30.4367,-88.0117,26.3,1111122 
DISL,ioos:station:DISL:MBLA:1,2014-10-03T08:30:00Z,30.4367,-88.0117,26.71,1111122 
DISL,ioos:station:DISL:MBLA:1,2014-10-03T09:00:00Z,30.4367,-88.0117,26.74,1111122 
DISL,ioos:station:DISL:MBLA:1,2014-10-03T09:30:00Z,30.4367,-88.0117,26.88,1111122 
DISL,ioos:station:DISL:MBLA:1,2014-10-03T10:00:00Z,30.4367,-88.0117,26.61,1111122 
DISL,ioos:station:DISL:MBLA:1,2014-10-03T10:30:00Z,30.4367,-88.0117,26.88,1111122 
DISL,ioos:station:DISL:MBLA:1,2014-10-03T11:00:00Z,30.4367,-88.0117,26.77,1111122 
DISL,ioos:station:DISL:MBLA:1,2014-10-03T11:30:00Z,30.4367,-88.0117,26.64,1111122 
DISL,ioos:station:DISL:MBLA:1,2014-10-03T12:00:00Z,30.4367,-88.0117,26.71,1111122 
DISL,ioos:station:DISL:MBLA:1,2014-10-03T12:30:00Z,30.4367,-88.0117,23.9,1111122 
DISL,ioos:station:DISL:MBLA:1,2014-10-03T13:00:00Z,30.4367,-88.0117,21.19,1111122 
DISL,ioos:station:DISL:MBLA:1,2014-10-03T13:30:00Z,30.4367,-88.0117,20.41,1111122 
DISL,ioos:station:DISL:MBLA:1,2014-10-03T14:00:00Z,30.4367,-88.0117,20.46,1111122 
DISL,ioos:station:DISL:MBLA:1,2014-10-03T14:30:00Z,30.4367,-88.0117,20.73,1111122 
DISL,ioos:station:DISL:MBLA:1,2014-10-03T15:00:00Z,30.4367,-88.0117,21.61,1111122 
DISL,ioos:station:DISL:MBLA:1,2014-10-03T15:30:00Z,30.4367,-88.0117,22.45,1111122 
DISL,ioos:station:DISL:MBLA:1,2014-10-03T16:00:00Z,30.4367,-88.0117,23.19,1111122 
DISL,ioos:station:DISL:MBLA:1,2014-10-03T16:30:00Z,30.4367,-88.0117,23.83,1111122 
DISL,ioos:station:DISL:MBLA:1,2014-10-03T17:00:00Z,30.4367,-88.0117,24.31,1111122 
DISL,ioos:station:DISL:MBLA:1,2014-10-03T17:30:00Z,30.4367,-88.0117,25.15,1111122 
DISL,ioos:station:DISL:MBLA:1,2014-10-03T18:00:00Z,30.4367,-88.0117,25.97,1111122 
DISL,ioos:station:DISL:MBLA:1,2014-10-03T18:30:00Z,30.4367,-88.0117,26.3,1111122 
DISL,ioos:station:DISL:MBLA:1,2014-10-03T19:00:00Z,30.4367,-88.0117,26.49,1111122 
DISL,ioos:station:DISL:MBLA:1,2014-10-03T19:30:00Z,30.4367,-88.0117,27.3,1111122 
DISL,ioos:station:DISL:MBLA:1,2014-10-03T20:00:00Z,30.4367,-88.0117,27.91,1111122 
DISL,ioos:station:DISL:MBLA:1,2014-10-03T20:30:00Z,30.4367,-88.0117,26.52,1111122 
DISL,ioos:station:DISL:MBLA:1,2014-10-03T21:00:00Z,30.4367,-88.0117,26.55,1111122 
DISL,ioos:station:DISL:MBLA:1,2014-10-03T21:30:00Z,30.4367,-88.0117,26.89,1111122 
DISL,ioos:station:DISL:MBLA:1,2014-10-03T22:00:00Z,30.4367,-88.0117,26.49,1111122 
DISL,ioos:station:DISL:MBLA:1,2014-10-03T22:30:00Z,30.4367,-88.0117,26.66,1111122 
DISL,ioos:station:DISL:MBLA:1,2014-10-03T23:00:00Z,30.4367,-88.0117,26.01,1111122 
DISL,ioos:station:DISL:MBLA:1,2014-10-03T23:30:00Z,30.4367,-88.0117,25.91,1111122 
DISL,ioos:station:DISL:MBLA:1,2014-10-04T00:00:00Z,30.4367,-88.0117,25.42,1111122 
DISL,ioos:station:DISL:MBLA:1,2014-10-04T00:30:00Z,30.4367,-88.0117,25.05,1111122 
DISL,ioos:station:DISL:MBLA:1,2014-10-04T01:00:00Z,30.4367,-88.0117,24.81,1111122 
DISL,ioos:station:DISL:MBLA:1,2014-10-04T01:30:00Z,30.4367,-88.0117,24.54,1111122 
DISL,ioos:station:DISL:MBLA:1,2014-10-04T02:00:00Z,30.4367,-88.0117,24.31,1111122 
DISL,ioos:station:DISL:MBLA:1,2014-10-04T02:30:00Z,30.4367,-88.0117,24.14,1111122 
DISL,ioos:station:DISL:MBLA:1,2014-10-04T03:00:00Z,30.4367,-88.0117,23.87,1111122 
DISL,ioos:station:DISL:MBLA:1,2014-10-04T03:30:00Z,30.4367,-88.0117,23.83,1111122 
DISL,ioos:station:DISL:MBLA:1,2014-10-04T04:00:00Z,30.4367,-88.0117,23.4,1111122 
DISL,ioos:station:DISL:MBLA:1,2014-10-04T04:30:00Z,30.4367,-88.0117,23.3,1111122 
DISL,ioos:station:DISL:MBLA:1,2014-10-04T05:00:00Z,30.4367,-88.0117,22.93,1111122 
DISL,ioos:station:DISL:MBLA:1,2014-10-04T05:30:00Z,30.4367,-88.0117,22.53,1111122 
DISL,ioos:station:DISL:MBLA:1,2014-10-04T06:00:00Z,30.4367,-88.0117,22.23,1111122 
DISL,ioos:station:DISL:MBLA:1,2014-10-04T06:30:00Z,30.4367,-88.0117,21.85,1111122 
DISL,ioos:station:DISL:MBLA:1,2014-10-04T07:00:00Z,30.4367,-88.0117,21.51,1111122 
DISL,ioos:station:DISL:MBLA:1,2014-10-04T07:30:00Z,30.4367,-88.0117,21.51,1111122 
DISL,ioos:station:DISL:MBLA:1,2014-10-04T08:00:00Z,30.4367,-88.0117,21.58,1111122 
DISL,ioos:station:DISL:MBLA:1,2014-10-04T08:30:00Z,30.4367,-88.0117,20.74,1111122 
DISL,ioos:station:DISL:MBLA:1,2014-10-04T09:00:00Z,30.4367,-88.0117,20.46,1111122 
DISL,ioos:station:DISL:MBLA:1,2014-10-04T09:30:00Z,30.4367,-88.0117,20.13,1111122 
DISL,ioos:station:DISL:MBLA:1,2014-10-04T10:00:00Z,30.4367,-88.0117,19.93,1111122 
DISL,ioos:station:DISL:MBLA:1,2014-10-04T10:30:00Z,30.4367,-88.0117,19.43,1111122 
DISL,ioos:station:DISL:MBLA:1,2014-10-04T11:00:00Z,30.4367,-88.0117,18.96,1111122 
DISL,ioos:station:DISL:MBLA:1,2014-10-04T11:30:00Z,30.4367,-88.0117,18.65,1111122 
DISL,ioos:station:DISL:MBLA:1,2014-10-04T12:00:00Z,30.4367,-88.0117,18.28,1111122 
DISL,ioos:station:DISL:MBLA:1,2014-10-04T12:30:00Z,30.4367,-88.0117,17.7,1111122 
DISL,ioos:station:DISL:MBLA:1,2014-10-04T13:00:00Z,30.4367,-88.0117,17.6,1111122 
DISL,ioos:station:DISL:MBLA:1,2014-10-04T13:30:00Z,30.4367,-88.0117,17.13,1111122 
DISL,ioos:station:DISL:MBLA:1,2014-10-04T14:00:00Z,30.4367,-88.0117,16.82,1111122 
DISL,ioos:station:DISL:MBLA:1,2014-10-04T14:30:00Z,30.4367,-88.0117,17.26,1111122 
DISL,ioos:station:DISL:MBLA:1,2014-10-04T15:00:00Z,30.4367,-88.0117,17.26,1111122 
DISL,ioos:station:DISL:MBLA:1,2014-10-04T15:30:00Z,30.4367,-88.0117,17.91,1111122 
DISL,ioos:station:DISL:MBLA:1,2014-10-04T16:00:00Z,30.4367,-88.0117,17.67,1111122 
DISL,ioos:station:DISL:MBLA:1,2014-10-04T16:30:00Z,30.4367,-88.0117,17.9,1111122 
DISL,ioos:station:DISL:MBLA:1,2014-10-04T17:00:00Z,30.4367,-88.0117,18.1,1111122 
DISL,ioos:station:DISL:MBLA:1,2014-10-04T17:30:00Z,30.4367,-88.0117,18.61,1111122 
DISL,ioos:station:DISL:MBLA:1,2014-10-04T18:00:00Z,30.4367,-88.0117,18.98,1111122 
DISL,ioos:station:DISL:MBLA:1,2014-10-04T18:30:00Z,30.4367,-88.0117,19.21,1111122 
DISL,ioos:station:DISL:MBLA:1,2014-10-04T19:00:00Z,30.4367,-88.0117,19.79,1111122 
DISL,ioos:station:DISL:MBLA:1,2014-10-04T19:30:00Z,30.4367,-88.0117,19.92,1111122 
DISL,ioos:station:DISL:MBLA:1,2014-10-04T20:00:00Z,30.4367,-88.0117,20.53,1111122 
DISL,ioos:station:DISL:MBLA:1,2014-10-04T20:30:00Z,30.4367,-88.0117,21.04,1111122 
DISL,ioos:station:DISL:MBLA:1,2014-10-04T21:00:00Z,30.4367,-88.0117,21.41,1111122 
DISL,ioos:station:DISL:MBLA:1,2014-10-04T21:30:00Z,30.4367,-88.0117,21.47,1111122 
DISL,ioos:station:DISL:MBLA:1,2014-10-04T22:00:00Z,30.4367,-88.0117,21.29,1111122 
DISL,ioos:station:DISL:MBLA:1,2014-10-04T22:30:00Z,30.4367,-88.0117,21.27,1111122 
DISL,ioos:station:DISL:MBLA:1,2014-10-04T23:00:00Z,30.4367,-88.0117,20.83,1111122 
DISL,ioos:station:DISL:MBLA:1,2014-10-04T23:30:00Z,30.4367,-88.0117,20.19,1111122 
DISL,ioos:station:DISL:MBLA:1,2014-10-05T00:00:00Z,30.4367,-88.0117,19.89,1111122 
DISL,ioos:station:DISL:MBLA:1,2014-10-05T00:30:00Z,30.4367,-88.0117,19.75,1111122 
DISL,ioos:station:DISL:MBLA:1,2014-10-05T01:00:00Z,30.4367,-88.0117,19.7,1111122 
DISL,ioos:station:DISL:MBLA:1,2014-10-05T01:30:00Z,30.4367,-88.0117,19.57,1111122 
DISL,ioos:station:DISL:MBLA:1,2014-10-05T02:00:00Z,30.4367,-88.0117,19.43,1111122 
DISL,ioos:station:DISL:MBLA:1,2014-10-05T02:30:00Z,30.4367,-88.0117,19.3,1111122 
DISL,ioos:station:DISL:MBLA:1,2014-10-05T03:00:00Z,30.4367,-88.0117,18.89,1111122 
DISL,ioos:station:DISL:MBLA:1,2014-10-05T03:30:00Z,30.4367,-88.0117,19.03,1111122 
DISL,ioos:station:DISL:MBLA:1,2014-10-05T04:00:00Z,30.4367,-88.0117,18.79,1111122 
DISL,ioos:station:DISL:MBLA:1,2014-10-05T04:30:00Z,30.4367,-88.0117,18.79,1111122 
DISL,ioos:station:DISL:MBLA:1,2014-10-05T05:00:00Z,30.4367,-88.0117,18.82,1111122 
DISL,ioos:station:DISL:MBLA:1,2014-10-05T05:30:00Z,30.4367,-88.0117,18.93,1111122 
DISL,ioos:station:DISL:MBLA:1,2014-10-05T06:00:00Z,30.4367,-88.0117,18.69,1111122 
DISL,ioos:station:DISL:MBLA:1,2014-10-05T06:30:00Z,30.4367,-88.0117,18.55,1111122 
DISL,ioos:station:DISL:MBLA:1,2014-10-05T07:00:00Z,30.4367,-88.0117,18.38,1111122 
DISL,ioos:station:DISL:MBLA:1,2014-10-05T07:30:00Z,30.4367,-88.0117,18.22,1111122 
DISL,ioos:station:DISL:MBLA:1,2014-10-05T08:00:00Z,30.4367,-88.0117,18.35,1111122 
DISL,ioos:station:DISL:MBLA:1,2014-10-05T08:30:00Z,30.4367,-88.0117,18.29,1111122 
DISL,ioos:station:DISL:MBLA:1,2014-10-05T09:00:00Z,30.4367,-88.0117,18.39,1111122 
DISL,ioos:station:DISL:MBLA:1,2014-10-05T09:30:00Z,30.4367,-88.0117,18.22,1111122 
DISL,ioos:station:DISL:MBLA:1,2014-10-05T10:00:00Z,30.4367,-88.0117,17.88,1111122 
DISL,ioos:station:DISL:MBLA:1,2014-10-05T10:30:00Z,30.4367,-88.0117,17.75,1111122 
DISL,ioos:station:DISL:MBLA:1,2014-10-05T11:00:00Z,30.4367,-88.0117,17.82,1111122 
DISL,ioos:station:DISL:MBLA:1,2014-10-05T11:30:00Z,30.4367,-88.0117,17.88,1111122 
DISL,ioos:station:DISL:MBLA:1,2014-10-05T12:00:00Z,30.4367,-88.0117,18.16,1111122 
DISL,ioos:station:DISL:MBLA:1,2014-10-05T12:30:00Z,30.4367,-88.0117,18.73,1111122 
DISL,ioos:station:DISL:MBLA:1,2014-10-05T13:00:00Z,30.4367,-88.0117,19.06,1111122 
DISL,ioos:station:DISL:MBLA:1,2014-10-05T13:30:00Z,30.4367,-88.0117,18.72,1111122 
DISL,ioos:station:DISL:MBLA:1,2014-10-05T14:00:00Z,30.4367,-88.0117,19.47,1111122 
DISL,ioos:station:DISL:MBLA:1,2014-10-05T14:30:00Z,30.4367,-88.0117,19.63,1111122 
DISL,ioos:station:DISL:MBLA:1,2014-10-05T15:00:00Z,30.4367,-88.0117,19.55,1111122 
DISL,ioos:station:DISL:MBLA:1,2014-10-05T15:30:00Z,30.4367,-88.0117,19.96,1111122 
DISL,ioos:station:DISL:MBLA:1,2014-10-05T16:00:00Z,30.4367,-88.0117,19.68,1111122 
DISL,ioos:station:DISL:MBLA:1,2014-10-05T16:30:00Z,30.4367,-88.0117,19.79,1111122 
DISL,ioos:station:DISL:MBLA:1,2014-10-05T17:00:00Z,30.4367,-88.0117,20.13,1111122 
DISL,ioos:station:DISL:MBLA:1,2014-10-05T17:30:00Z,30.4367,-88.0117,20.46,1111122 
DISL,ioos:station:DISL:MBLA:1,2014-10-05T18:00:00Z,30.4367,-88.0117,20.77,1111122 
DISL,ioos:station:DISL:MBLA:1,2014-10-05T18:30:00Z,30.4367,-88.0117,20.9,1111122 
DISL,ioos:station:DISL:MBLA:1,2014-10-05T19:00:00Z,30.4367,-88.0117,21.09,1111122 
DISL,ioos:station:DISL:MBLA:1,2014-10-05T19:30:00Z,30.4367,-88.0117,21.43,1111122 
DISL,ioos:station:DISL:MBLA:1,2014-10-05T20:00:00Z,30.4367,-88.0117,21.5,1111122 
DISL,ioos:station:DISL:MBLA:1,2014-10-05T20:30:00Z,30.4367,-88.0117,21.7,1111122 
DISL,ioos:station:DISL:MBLA:1,2014-10-05T21:00:00Z,30.4367,-88.0117,22.24,1111122 
DISL,ioos:station:DISL:MBLA:1,2014-10-05T21:30:00Z,30.4367,-88.0117,22.34,1111122 
DISL,ioos:station:DISL:MBLA:1,2014-10-05T22:00:00Z,30.4367,-88.0117,22.48,1111122 
DISL,ioos:station:DISL:MBLA:1,2014-10-05T22:30:00Z,30.4367,-88.0117,22.54,1111122 
DISL,ioos:station:DISL:MBLA:1,2014-10-05T23:00:00Z,30.4367,-88.0117,22.44,1111122 
DISL,ioos:station:DISL:MBLA:1,2014-10-05T23:30:00Z,30.4367,-88.0117,22.1,1111122 
DISL,ioos:station:DISL:MBLA:1,2014-10-06T00:00:00Z,30.4367,-88.0117,22.11,1111122 
DISL,ioos:station:DISL:MBLA:1,2014-10-06T00:30:00Z,30.4367,-88.0117,22.16,1111122 
DISL,ioos:station:DISL:MBLA:1,2014-10-06T01:00:00Z,30.4367,-88.0117,22.33,1111122 
DISL,ioos:station:DISL:MBLA:1,2014-10-06T01:30:00Z,30.4367,-88.0117,22.36,1111122 
DISL,ioos:station:DISL:MBLA:1,2014-10-06T02:00:00Z,30.4367,-88.0117,22.43,1111122 
DISL,ioos:station:DISL:MBLA:1,2014-10-06T02:30:00Z,30.4367,-88.0117,22.6,1111122 
DISL,ioos:station:DISL:MBLA:1,2014-10-06T03:00:00Z,30.4367,-88.0117,22.57,1111122 
DISL,ioos:station:DISL:MBLA:1,2014-10-06T03:30:00Z,30.4367,-88.0117,22.63,1111122 
DISL,ioos:station:DISL:MBLA:1,2014-10-06T04:00:00Z,30.4367,-88.0117,22.84,1111122 
DISL,ioos:station:DISL:MBLA:1,2014-10-06T04:30:00Z,30.4367,-88.0117,22.77,1111122 
DISL,ioos:station:DISL:MBLA:1,2014-10-06T05:00:00Z,30.4367,-88.0117,22.84,1111122 
DISL,ioos:station:DISL:MBLA:1,2014-10-06T05:30:00Z,30.4367,-88.0117,22.94,1111122 
DISL,ioos:station:DISL:MBLA:1,2014-10-06T06:00:00Z,30.4367,-88.0117,22.97,1111122 
DISL,ioos:station:DISL:MBLA:1,2014-10-06T06:30:00Z,30.4367,-88.0117,22.97,1111122 
DISL,ioos:station:DISL:MBLA:1,2014-10-06T07:00:00Z,30.4367,-88.0117,23.01,1111122 
DISL,ioos:station:DISL:MBLA:1,2014-10-06T07:30:00Z,30.4367,-88.0117,23.04,1111122 
DISL,ioos:station:DISL:MBLA:1,2014-10-06T08:00:00Z,30.4367,-88.0117,22.97,1111122 
DISL,ioos:station:DISL:MBLA:1,2014-10-06T08:30:00Z,30.4367,-88.0117,23.11,1111122 
DISL,ioos:station:DISL:MBLA:1,2014-10-06T09:00:00Z,30.4367,-88.0117,23.14,1111122 
DISL,ioos:station:DISL:MBLA:1,2014-10-06T09:30:00Z,30.4367,-88.0117,23.21,1111122 
DISL,ioos:station:DISL:MBLA:1,2014-10-06T10:00:00Z,30.4367,-88.0117,23.21,1111122 
DISL,ioos:station:DISL:MBLA:1,2014-10-06T10:30:00Z,30.4367,-88.0117,23.31,1111122 
DISL,ioos:station:DISL:MBLA:1,2014-10-06T11:00:00Z,30.4367,-88.0117,23.35,1111122 
DISL,ioos:station:DISL:MBLA:1,2014-10-06T11:30:00Z,30.4367,-88.0117,23.48,1111122 
DISL,ioos:station:DISL:MBLA:1,2014-10-06T12:00:00Z,30.4367,-88.0117,23.58,1111122 
DISL,ioos:station:DISL:MBLA:1,2014-10-06T12:30:00Z,30.4367,-88.0117,23.82,1111122 
DISL,ioos:station:DISL:MBLA:1,2014-10-06T13:00:00Z,30.4367,-88.0117,23.98,1111122 
DISL,ioos:station:DISL:MBLA:1,2014-10-06T13:30:00Z,30.4367,-88.0117,24.07,1111122 
DISL,ioos:station:DISL:MBLA:1,2014-10-06T14:00:00Z,30.4367,-88.0117,23.93,1111122 
DISL,ioos:station:DISL:MBLA:1,2014-10-06T14:30:00Z,30.4367,-88.0117,24.2,1111122 
DISL,ioos:station:DISL:MBLA:1,2014-10-06T15:00:00Z,30.4367,-88.0117,24.41,1111122 
DISL,ioos:station:DISL:MBLA:1,2014-10-06T15:30:00Z,30.4367,-88.0117,24.51,1111122 
DISL,ioos:station:DISL:MBLA:1,2014-10-06T16:00:00Z,30.4367,-88.0117,24.41,1111122 
DISL,ioos:station:DISL:MBLA:1,2014-10-06T16:30:00Z,30.4367,-88.0117,24.34,1111122 
DISL,ioos:station:DISL:MBLA:1,2014-10-06T17:00:00Z,30.4367,-88.0117,24.51,1111122 
DISL,ioos:station:DISL:MBLA:1,2014-10-06T17:30:00Z,30.4367,-88.0117,24.68,1111122 
DISL,ioos:station:DISL:MBLA:1,2014-10-06T18:00:00Z,30.4367,-88.0117,24.81,1111122 
DISL,ioos:station:DISL:MBLA:1,2014-10-06T18:30:00Z,30.4367,-88.0117,24.94,1111122 
DISL,ioos:station:DISL:MBLA:1,2014-10-06T19:00:00Z,30.4367,-88.0117,25.1,1111122 
DISL,ioos:station:DISL:MBLA:1,2014-10-06T19:30:00Z,30.4367,-88.0117,25.07,1111122 
DISL,ioos:station:DISL:MBLA:1,2014-10-06T20:00:00Z,30.4367,-88.0117,25.03,1111122 
DISL,ioos:station:DISL:MBLA:1,2014-10-06T20:30:00Z,30.4367,-88.0117,25.2,1111122 
DISL,ioos:station:DISL:MBLA:1,2014-10-06T21:00:00Z,30.4367,-88.0117,25.27,1111122 
DISL,ioos:station:DISL:MBLA:1,2014-10-06T21:30:00Z,30.4367,-88.0117,25.3,1111122 
DISL,ioos:station:DISL:MBLA:1,2014-10-06T22:00:00Z,30.4367,-88.0117,25.13,1111122 
DISL,ioos:station:DISL:MBLA:1,2014-10-06T22:30:00Z,30.4367,-88.0117,24.79,1111122 
DISL,ioos:station:DISL:MBLA:1,2014-10-06T23:00:00Z,30.4367,-88.0117,24.74,1111122 
DISL,ioos:station:DISL:MBLA:1,2014-10-06T23:30:00Z,30.4367,-88.0117,24.58,1111122 